Regional Weather Roundup
Issued by NWS Charleston, WV

Home | Current Version | Previous Version | Graphics & Text | Print | Product List | Glossary On
Versions: 1 2 3 4 5 6 7 8 9 10 11 12 13 14 15 16 17 18 19 20 21 22 23 24 25 26 27 28 29 30 31 32 33 34 35 36 37 38 39 40 41 42 43 44 45 46 47 48 49 50
000
ASUS41 KRLX 311410
RWRRLX
West Virginia Regional Weather Roundup
National Weather Service Charleston WV
1000 AM EDT THU JUL 31 2014

Note: "fair" indicates few or no clouds below 12,000 feet with no
significant weather and/or obstructions to visibility.

WVZ003-311500-
Northern Panhandle of West Virginia

CITY           SKY/WX    TMP DP  RH WIND       PRES   REMARKS
WHEELING       MOSUNNY   65  60  84 SW9       30.11R
$$

WVZ009-311500-
Northwest West Virginia

CITY           SKY/WX    TMP DP  RH WIND       PRES   REMARKS
PARKERSBURG    SUNNY     67  61  81 S6        30.14S
$$

WVZ006-311500-
Western West Virginia

CITY           SKY/WX    TMP DP  RH WIND       PRES   REMARKS
HUNTINGTON     SUNNY     67  62  84 SW6       30.12S
$$

WVZ015-311500-
West Central West Virginia

CITY           SKY/WX    TMP DP  RH WIND       PRES   REMARKS
CHARLESTON     SUNNY     71  65  81 CALM      30.13S
$$

WVZ031-311500-
North Central West Virginia

CITY           SKY/WX    TMP DP  RH WIND       PRES   REMARKS
CLARKSBURG     MOSUNNY   68  59  73 S3        30.13S
MORGANTOWN     CLOUDY    67  58  72 S5        30.14S
$$

WVZ035-042-045-311500-
South Central West Virginia

CITY           SKY/WX    TMP DP  RH WIND       PRES   REMARKS
BECKLEY        SUNNY     68  57  68 SW5       30.20R
BLUEFIELD      MOSUNNY   71  53  52 CALM      30.21S
LEWISBURG      SUNNY     67  57  69 CALM      30.19F
$$

WVZ047-311500-
Northern Mountains of West Virginia

CITY           SKY/WX    TMP DP  RH WIND       PRES   REMARKS
ELKINS         SUNNY     68  56  65 S6        30.17F
$$

WVZ052-311500-
Eastern Panhandle of West Virginia

CITY           SKY/WX    TMP DP  RH WIND       PRES   REMARKS
MARTINSBURG    CLOUDY    70  58  65 VRB3      30.12R
PETERSBURG     SUNNY     66  58  75 CALM      30.13F
$$



USA.gov is the U.S. government's official web portal to all federal, state and local government web resources and services.